Regional Weather Roundup
Issued by NWS

Home | Current Version | Previous Version | Graphics & Text | Print | Product List | Glossary On
Versions: 1 2 3 4 5 6 7 8 9 10 11 12 13 14 15 16 17 18 19 20 21 22 23 24 25 26 27 28 29 30 31 32 33 34 35 36 37 38 39 40 41 42 43 44 45 46 47 48 49 50
000
ASUS43 KTOP 280359
RWRKS

WEATHER ROUNDUP FOR KANSAS
NATIONAL WEATHER SERVICE GOODLAND KS
1100 PM CDT SUN JUL 27 2014

NOTE:  "FAIR" INDICATES FEW OR NO CLOUDS BELOW 12,000 FEET WITH NO
SIGNIFICANT WEATHER AND/OR OBSTRUCTIONS TO VISIBILITY.

KSZ001>006-013>018-027>032-041>047-280500-
NORTHWEST KANSAS

CITY           SKY/WX    TMP DP  RH WIND       PRES   REMARKS
GOODLAND       PTCLDY    67  53  61 S8        30.31R
HAYS           CLEAR     70  52  52 NE8       30.22S
HILL CITY      PTCLDY    70  55  59 CALM      30.24R
RUSSELL        CLEAR     71  52  50 E6        30.20R
$$

KSZ061>065-074>080-084>089-280500-
SOUTHWEST KANSAS

CITY           SKY/WX    TMP DP  RH WIND       PRES   REMARKS
DODGE CITY     CLEAR     69  57  65 E3        30.24R
ELKHART          N/A     71  58  63 SE7         N/A
GARDEN CITY    PTCLDY    74  55  51 E6        30.26R
GREAT BEND     CLEAR     73  57  56 E3        30.20S
LIBERAL        MOCLDY    75  52  43 SE5       30.27S
$$

KSZ066>073-081>083-090>101-280500-
SOUTHEAST KANSAS

CITY           SKY/WX    TMP DP  RH WIND       PRES   REMARKS
CHANUTE        CLEAR     72  56  57 N6        30.12R
COFFEYVILLE    FOG       71  69  93 NW5       30.09R VSB 1/2
HUTCHINSON     CLEAR     74  55  51 NE7       30.18R
MEDICINE LODGE   N/A     72  67  84 N3        30.17R
NEWTON         CLEAR     72  52  49 NE6       30.21R
PARSONS        CLEAR     68  61  78 N6        30.12R
WICHITA INTL   PTCLDY    78  54  43 N9        30.16R
WICHITA JABRA  PTCLDY    70  55  59 N9        30.16R
WINFIELD       CLEAR     72  69  90 NW3       30.15R
$$

KSZ007>012-019>026-033>040-048>060-102>105-280500-
NORTHEAST KANSAS

CITY           SKY/WX    TMP DP  RH WIND       PRES   REMARKS
CONCORDIA      CLEAR     70  57  63 CALM      30.19R
EMPORIA        CLEAR     72  55  55 N6        30.15R
LAWRENCE       CLEAR     74  58  57 N10       30.13R
MANHATTAN      CLEAR     73  58  59 N3        30.16R
OLATHE IND     CLEAR     69  59  70 N10       30.13R
OLATHE EXE     CLEAR     74  58  57 N12       30.12R
SALINA         CLEAR     76  54  46 CALM      30.18R
TOPEKA BILLARD CLEAR     73  58  59 N8        30.14R
TOPEKA FORBES  CLEAR     74  57  55 N6        30.14R
$$



USA.gov is the U.S. government's official web portal to all federal, state and local government web resources and services.